{"data":{"norad_id":64371,"epoch":"2026-05-24T22:54:12.397824Z","epoch_age_seconds":75647,"freshness":"FRESH","line1":"1 64371U 25127B   26144.95431016  .00225053  00000+0  17060-2 0  9996","line2":"2 64371  42.9998 345.1243 0001716 260.2183  99.8491 15.70900757 55497","mean_motion":15.70900757,"eccentricity":0.0001716,"inclination_deg":42.9998,"raan_deg":345.1243,"arg_perigee_deg":260.2183,"mean_anomaly_deg":99.8491,"bstar":0.001706,"rev_number":5549,"period_min":91.667152974706,"perigee_km":355.16577922515,"apogee_km":357.47704535225,"semimajor_km":6734.4584122887,"source":"CELESTRAK","updated_at":"2026-05-25T13:38:20.408860Z"}}